| time (UTC) | temp F | wind direction | speed knots | gust knots | rain 1hr in | rain 24hr in | rain mn in | humidity % | barometer mb |
| 20260505011004 | 53 | 111 | 1.7 | 5.2 | 0.00 | 0.00 | 0.00 | 43 | 1013.2 |
| 20260505010504 | 54 | 313 | 0.9 | 5.2 | 0.00 | 0.00 | 0.00 | 44 | 1013.1 |
| 20260505010009 | 54 | 100 | 0.9 | 3.5 | 0.00 | 0.00 | 0.00 | 43 | 1013.2 |
| 20260505005504 | 54 | 22 | 0.0 | 5.2 | 0.00 | 0.00 | 0.00 | 42 | 1013.2 |
| 20260505005004 | 54 | 344 | 0.0 | 5.2 | 0.00 | 0.00 | 0.00 | 42 | 1013.2 |
| 20260505004517 | 54 | 306 | 0.9 | 5.2 | 0.00 | 0.00 | 0.00 | 43 | 1013.1 |
| 20260505004009 | 54 | 201 | 0.0 | 7.0 | 0.00 | 0.00 | 0.00 | 42 | 1013.2 |
| 20260505003506 | 54 | 103 | 2.6 | 7.0 | 0.00 | 0.00 | 0.00 | 41 | 1013.2 |
| 20260505003018 | 55 | 291 | 0.9 | 4.3 | 0.00 | 0.00 | 0.00 | 43 | 1013.2 |
| 20260505002508 | 55 | 248 | 0.9 | 5.2 | 0.00 | 0.00 | 0.00 | 45 | 1013.0 |
| 20260505002008 | 55 | 100 | 0.9 | 5.2 | 0.00 | 0.00 | 0.00 | 43 | 1013.0 |
| 20260505001520 | 55 | 89 | 0.9 | 5.2 | 0.00 | 0.00 | 0.00 | 43 | 1013.0 |
| 20260505001005 | 55 | 116 | 0.9 | 5.2 | 0.00 | 0.00 | 0.00 | 43 | 1013.0 |
| 20260505000503 | 55 | 355 | 0.9 | 5.2 | 0.00 | 0.00 | 0.00 | 40 | 1013.0 |
| 20260505000013 | 55 | 104 | 0.0 | 5.2 | 0.00 | 0.00 | 0.00 | 42 | 1013.0 |
| 20260504235503 | 55 | 225 | 0.0 | 2.6 | 0.00 | 0.00 | 0.00 | 43 | 1012.9 |
| 20260504235004 | 55 | 283 | 0.0 | 3.5 | 0.00 | 0.00 | 0.00 | 41 | 1013.0 |
| 20260504234511 | 55 | 88 | 0.9 | 4.3 | 0.00 | 0.00 | 0.00 | 39 | 1013.0 |
| 20260504234004 | 56 | 88 | 0.9 | 5.2 | 0.00 | 0.00 | 0.00 | 39 | 1013.0 |
| 20260504233503 | 56 | 128 | 0.9 | 5.2 | 0.00 | 0.00 | 0.00 | 39 | 1013.0 |
| 20260504233017 | 55 | 82 | 1.7 | 3.5 | 0.00 | 0.00 | 0.00 | 40 | 1012.9 |
| 20260504232507 | 55 | 240 | 0.9 | 3.5 | 0.00 | 0.00 | 0.00 | 39 | 1012.9 |
| 20260504232007 | 55 | 66 | 0.9 | 6.1 | 0.00 | 0.00 | 0.00 | 41 | 1012.8 |
| 20260504231526 | 55 | 146 | 0.9 | 6.1 | 0.00 | 0.00 | 0.00 | 42 | 1012.8 |
| 20260504231014 | 55 | 159 | 1.7 | 5.2 | 0.00 | 0.00 | 0.00 | 41 | 1012.8 |
| 20260504230509 | 55 | 186 | 0.0 | 3.5 | 0.00 | 0.00 | 0.00 | 42 | 1012.8 |
| 20260504230020 | 56 | 89 | 0.0 | 2.6 | 0.00 | 0.00 | 0.00 | 40 | 1012.8 |
| 20260504225503 | 55 | 159 | 0.9 | 2.6 | 0.00 | 0.00 | 0.00 | 39 | 1012.8 |
| 20260504225004 | 56 | 5 | 0.9 | 3.5 | 0.00 | 0.00 | 0.00 | 39 | 1012.8 |
| 20260504224508 | 56 | 100 | 0.0 | 5.2 | 0.00 | 0.00 | 0.00 | 41 | 1012.8 |
| 20260504224005 | 56 | 144 | 0.0 | 5.2 | 0.00 | 0.00 | 0.00 | 40 | 1012.8 |
| 20260504223504 | 56 | 55 | 0.0 | 5.2 | 0.00 | 0.00 | 0.00 | 40 | 1012.8 |
| 20260504223012 | 56 | 317 | 0.0 | 5.2 | 0.00 | 0.00 | 0.00 | 39 | 1012.8 |
| 20260504222504 | 56 | 61 | 0.9 | 3.5 | 0.00 | 0.00 | 0.00 | 40 | 1012.8 |
| 20260504222006 | 56 | 178 | 0.0 | 3.5 | 0.00 | 0.00 | 0.00 | 40 | 1012.7 |
| 20260504221514 | 56 | 19 | 0.0 | 3.5 | 0.00 | 0.00 | 0.00 | 38 | 1012.7 |
| 20260504221008 | 56 | 325 | 0.0 | 7.8 | 0.00 | 0.00 | 0.00 | 40 | 1012.8 |
| 20260504220508 | 56 | 134 | 0.9 | 7.8 | 0.00 | 0.00 | 0.00 | 40 | 1012.8 |
| 20260504220020 | 56 | 258 | 0.9 | 6.1 | 0.00 | 0.00 | 0.00 | 41 | 1012.8 |
| 20260504215509 | 56 | 336 | 1.7 | 6.1 | 0.00 | 0.00 | 0.00 | 40 | 1012.9 |
| 20260504215009 | 56 | 145 | 1.7 | 6.1 | 0.00 | 0.00 | 0.00 | 42 | 1012.9 |
| 20260504214522 | 56 | 186 | 0.9 | 3.5 | 0.00 | 0.00 | 0.00 | 41 | 1012.9 |
| 20260504214004 | 56 | 352 | 0.0 | 3.5 | 0.00 | 0.00 | 0.00 | 41 | 1013.0 |
| 20260504213505 | 55 | 220 | 0.9 | 2.6 | 0.00 | 0.00 | 0.00 | 43 | 1012.9 |
| 20260504213012 | 56 | 263 | 0.9 | 4.3 | 0.00 | 0.00 | 0.00 | 42 | 1013.0 |
| 20260504212506 | 56 | 76 | 0.9 | 4.3 | 0.00 | 0.00 | 0.00 | 42 | 1013.0 |
| 20260504212005 | 56 | 211 | 0.9 | 4.3 | 0.00 | 0.00 | 0.00 | 41 | 1013.0 |
| 20260504211515 | 55 | 162 | 1.7 | 5.2 | 0.00 | 0.00 | 0.00 | 40 | 1013.0 |
| 20260504211004 | 56 | 171 | 0.9 | 5.2 | 0.00 | 0.00 | 0.00 | 40 | 1013.0 |
| 20260504210504 | 56 | 42 | 0.9 | 6.1 | 0.00 | 0.00 | 0.00 | 42 | 1013.0 |
| 20260504210020 | 55 | 143 | 2.6 | 6.1 | 0.00 | 0.00 | 0.00 | 43 | 1013.1 |
| 20260504205507 | 56 | 51 | 0.9 | 6.1 | 0.00 | 0.00 | 0.00 | 42 | 1013.0 |
| 20260504205012 | 56 | 106 | 0.9 | 3.5 | 0.00 | 0.00 | 0.00 | 41 | 1013.1 |
| 20260504204521 | 55 | 315 | 0.9 | 3.5 | 0.00 | 0.00 | 0.00 | 42 | 1013.1 |
| 20260504204011 | 55 | 211 | 0.0 | 4.3 | 0.00 | 0.00 | 0.00 | 42 | 1013.1 |
| 20260504203513 | 55 | 200 | 1.7 | 4.3 | 0.00 | 0.00 | 0.00 | 43 | 1013.1 |
| 20260504203031 | 55 | 259 | 0.9 | 6.1 | 0.00 | 0.00 | 0.00 | 44 | 1013.2 |
| 20260504202503 | 54 | 195 | 2.6 | 6.1 | 0.00 | 0.00 | 0.00 | 44 | 1013.2 |
| 20260504202003 | 55 | 178 | 0.0 | 5.2 | 0.00 | 0.00 | 0.00 | 44 | 1013.2 |
| 20260504201512 | 55 | 322 | 0.9 | 5.2 | 0.00 | 0.00 | 0.00 | 46 | 1013.3 |
| 20260504201005 | 54 | 194 | 1.7 | 5.2 | 0.00 | 0.00 | 0.00 | 43 | 1013.2 |
| 20260504200509 | 55 | 167 | 1.7 | 5.2 | 0.00 | 0.00 | 0.00 | 45 | 1013.2 |
| 20260504200018 | 55 | 171 | 1.7 | 5.2 | 0.00 | 0.00 | 0.00 | 42 | 1013.2 |
| 20260504195506 | 55 | 227 | 1.7 | 4.3 | 0.00 | 0.00 | 0.00 | 44 | 1013.2 |
| 20260504195007 | 55 | 321 | 0.9 | 3.5 | 0.00 | 0.00 | 0.00 | 42 | 1013.2 |
| 20260504194536 | 56 | 53 | 1.7 | 3.5 | 0.00 | 0.00 | 0.00 | 43 | 1013.2 |
| 20260504194008 | 55 | 78 | 0.0 | 4.3 | 0.00 | 0.00 | 0.00 | 46 | 1013.3 |
| 20260504193026 | 55 | 164 | 1.7 | 5.2 | 0.00 | 0.00 | 0.00 | 43 | 1013.3 |
| 20260504192507 | 55 | 146 | 1.7 | 5.2 | 0.00 | 0.00 | 0.00 | 45 | 1013.3 |
| 20260504192009 | 55 | 107 | 2.6 | 6.1 | 0.00 | 0.00 | 0.00 | 42 | 1013.3 |
| 20260504191529 | 55 | 168 | 3.5 | 6.1 | 0.00 | 0.00 | 0.00 | 41 | 1013.3 |
| 20260504191011 | 55 | 201 | 2.6 | 6.1 | 0.00 | 0.00 | 0.00 | 42 | 1013.3 |
| 20260504190504 | 56 | 109 | 0.9 | 6.1 | 0.00 | 0.00 | 0.00 | 42 | 1013.4 |
| 20260504190012 | 56 | 69 | 1.7 | 7.0 | 0.00 | 0.00 | 0.00 | 39 | 1013.5 |
| 20260504185503 | 55 | 68 | 2.6 | 7.0 | 0.00 | 0.00 | 0.00 | 40 | 1013.5 |
| 20260504185004 | 56 | 213 | 0.9 | 7.0 | 0.00 | 0.00 | 0.00 | 42 | 1013.5 |
| 20260504184523 | 54 | 281 | 1.7 | 7.0 | 0.00 | 0.00 | 0.00 | 41 | 1013.5 |
| 20260504184007 | 55 | 244 | 1.7 | 6.1 | 0.00 | 0.00 | 0.00 | 42 | 1013.6 |
| 20260504183509 | 54 | 146 | 2.6 | 6.1 | 0.00 | 0.00 | 0.00 | 42 | 1013.5 |
| 20260504183022 | 54 | 173 | 1.7 | 5.2 | 0.00 | 0.00 | 0.00 | 45 | 1013.6 |
| 20260504182509 | 54 | 204 | 1.7 | 6.1 | 0.00 | 0.00 | 0.00 | 43 | 1013.6 |
| 20260504182011 | 54 | 176 | 0.0 | 6.1 | 0.00 | 0.00 | 0.00 | 42 | 1013.6 |
| 20260504181524 | 54 | 188 | 0.9 | 5.2 | 0.00 | 0.00 | 0.00 | 44 | 1013.8 |
| 20260504181015 | 54 | 180 | 1.7 | 3.5 | 0.00 | 0.00 | 0.00 | 43 | 1013.8 |
| 20260504180511 | 54 | 86 | 0.9 | 3.5 | 0.00 | 0.00 | 0.00 | 44 | 1013.8 |
| 20260504180032 | 53 | 86 | 0.9 | 5.2 | 0.00 | 0.00 | 0.00 | 44 | 1013.9 |
| 20260504175509 | 53 | 115 | 1.7 | 5.2 | 0.00 | 0.00 | 0.00 | 44 | 1013.9 |
| 20260504175007 | 52 | 166 | 2.6 | 6.1 | 0.00 | 0.00 | 0.00 | 44 | 1013.8 |
| 20260504174516 | 53 | 124 | 1.7 | 6.1 | 0.00 | 0.00 | 0.00 | 45 | 1013.9 |
| 20260504174008 | 53 | 155 | 0.9 | 4.3 | 0.00 | 0.00 | 0.00 | 46 | 1013.9 |
| 20260504173507 | 53 | 126 | 0.9 | 4.3 | 0.00 | 0.00 | 0.00 | 46 | 1013.9 |
| 20260504173022 | 52 | 108 | 0.9 | 6.1 | 0.00 | 0.00 | 0.00 | 47 | 1014.1 |
| 20260504172508 | 52 | 109 | 1.7 | 6.1 | 0.00 | 0.00 | 0.00 | 47 | 1014.1 |
| 20260504172006 | 52 | 158 | 1.7 | 6.1 | 0.00 | 0.00 | 0.00 | 46 | 1014.1 |
| 20260504171520 | 51 | 167 | 2.6 | 6.1 | 0.00 | 0.00 | 0.00 | 47 | 1014.2 |
| 20260504171014 | 51 | 112 | 0.9 | 3.5 | 0.00 | 0.00 | 0.00 | 50 | 1014.3 |
| 20260504170509 | 50 | 87 | 1.7 | 3.5 | 0.00 | 0.00 | 0.00 | 49 | 1014.3 |
| 20260504151003 | 48 | 247 | 1.7 | 6.1 | 0.00 | 0.00 | 0.00 | 52 | 1015.1 |
| 20260504150507 | 47 | 254 | 0.9 | 3.5 | 0.00 | 0.00 | 0.00 | 54 | 1015.2 |
| 20260504141010 | 44 | 122 | 1.7 | 5.2 | 0.00 | 0.00 | 0.00 | 56 | 1015.0 |
| 20260504140505 | 44 | 298 | 1.7 | 5.2 | 0.00 | 0.00 | 0.00 | 57 | 1014.9 |
| 20260504130507 | 43 | 123 | 1.7 | 3.5 | 0.00 | 0.00 | 0.00 | 55 | 1014.0 |
| 20260504110508 | 46 | 169 | 0.0 | 3.5 | 0.00 | 0.00 | 0.00 | 51 | 1013.1 |
| 20260504100506 | 48 | 5 | 0.0 | 6.1 | 0.00 | 0.00 | 0.00 | 50 | 1012.3 |
| 20260504081525 | 46 | 257 | 0.0 | 4.3 | 0.00 | 0.00 | 0.00 | 62 | 1011.1 |
| 20260504081007 | 45 | 296 | 0.0 | 4.3 | 0.00 | 0.00 | 0.00 | 66 | 1011.1 |
| 20260504080507 | 43 | 169 | 0.9 | 4.3 | 0.00 | 0.00 | 0.00 | 70 | 1011.2 |
| 20260504050512 | 47 | 344 | 0.9 | 1.7 | 0.00 | 0.00 | 0.00 | 56 | 1010.6 |
| 20260504050016 | 47 | 336 | 0.0 | 0.9 | 0.00 | 0.00 | 0.00 | 57 | 1010.5 |
| 20260504045507 | 48 | 336 | 0.0 | 1.7 | 0.00 | 0.00 | 0.00 | 55 | 1010.5 |
| 20260504045006 | 48 | 336 | 0.0 | 1.7 | 0.00 | 0.00 | 0.00 | 56 | 1010.5 |
| 20260504044521 | 47 | 333 | 0.0 | 1.7 | 0.00 | 0.00 | 0.00 | 56 | 1010.5 |
| 20260504044008 | 48 | 333 | 0.0 | 2.6 | 0.00 | 0.00 | 0.00 | 59 | 1010.5 |
| 20260504043508 | 48 | 350 | 0.0 | 2.6 | 0.00 | 0.00 | 0.00 | 53 | 1010.5 |
| 20260504043007 | 48 | 346 | 0.9 | 2.6 | 0.00 | 0.00 | 0.00 | 56 | 1010.5 |
| 20260504042504 | 48 | 355 | 0.0 | 1.7 | 0.00 | 0.00 | 0.00 | 56 | 1010.5 |
| 20260504042002 | 49 | 355 | 0.0 | 1.7 | 0.00 | 0.00 | 0.00 | 54 | 1010.5 |
| 20260504041510 | 49 | 355 | 0.0 | 0.9 | 0.00 | 0.00 | 0.00 | 52 | 1010.5 |
| 20260504041004 | 49 | 355 | 0.0 | 1.7 | 0.00 | 0.00 | 0.00 | 52 | 1010.4 |
| 20260504040507 | 49 | 355 | 0.0 | 1.7 | 0.00 | 0.00 | 0.00 | 53 | 1010.4 |
| 20260504040014 | 50 | 355 | 0.0 | 1.7 | 0.00 | 0.00 | 0.00 | 50 | 1010.4 |
| 20260504035506 | 50 | 355 | 0.0 | 1.7 | 0.00 | 0.00 | 0.00 | 52 | 1010.4 |
| 20260504035007 | 50 | 355 | 0.0 | 0.9 | 0.00 | 0.00 | 0.00 | 50 | 1010.4 |
| 20260504034536 | 51 | 355 | 0.0 | 0.9 | 0.00 | 0.00 | 0.00 | 48 | 1010.4 |
| 20260504034007 | 51 | 355 | 0.0 | 0.9 | 0.00 | 0.00 | 0.00 | 48 | 1010.4 |
| 20260504033507 | 52 | 355 | 0.0 | 1.7 | 0.00 | 0.00 | 0.00 | 48 | 1010.3 |
| 20260504033029 | 52 | 355 | 0.9 | 1.7 | 0.00 | 0.00 | 0.00 | 47 | 1010.3 |
| 20260504032508 | 53 | 351 | 0.0 | 1.7 | 0.00 | 0.00 | 0.00 | 46 | 1010.4 |
| 20260504032011 | 54 | 351 | 0.0 | 1.7 | 0.00 | 0.00 | 0.00 | 43 | 1010.2 |
| 20260504031508 | 54 | 351 | 0.0 | 1.7 | 0.00 | 0.00 | 0.00 | 42 | 1010.2 |
| 20260504031003 | 55 | 351 | 0.0 | 1.7 | 0.00 | 0.00 | 0.00 | 42 | 1010.2 |
| 20260504030503 | 56 | 350 | 0.0 | 0.9 | 0.00 | 0.00 | 0.00 | 41 | 1010.1 |
| 20260504030014 | 56 | 350 | 0.0 | 0.9 | 0.00 | 0.00 | 0.00 | 40 | 1010.1 |
| 20260504025508 | 57 | 350 | 0.0 | 0.9 | 0.00 | 0.00 | 0.00 | 38 | 1010.0 |
| 20260504025004 | 58 | 350 | 0.0 | 1.7 | 0.00 | 0.00 | 0.00 | 37 | 1010.0 |
| 20260504024518 | 59 | 350 | 0.0 | 2.6 | 0.00 | 0.00 | 0.00 | 34 | 1010.0 |
| 20260504024005 | 60 | 352 | 0.9 | 2.6 | 0.00 | 0.00 | 0.00 | 32 | 1009.9 |
| 20260504023507 | 61 | 336 | 0.9 | 2.6 | 0.00 | 0.00 | 0.00 | 31 | 1009.9 |
| 20260504023024 | 62 | 347 | 0.0 | 2.6 | 0.00 | 0.00 | 0.00 | 29 | 1010.0 |
| 20260504022508 | 62 | 342 | 0.0 | 2.6 | 0.00 | 0.00 | 0.00 | 28 | 1009.9 |
| 20260504022008 | 63 | 298 | 0.9 | 2.6 | 0.00 | 0.00 | 0.00 | 26 | 1009.9 |
| 20260504021525 | 64 | 314 | 0.0 | 2.6 | 0.00 | 0.00 | 0.00 | 26 | 1009.9 |
| 20260504021008 | 65 | 317 | 0.0 | 2.6 | 0.00 | 0.00 | 0.00 | 26 | 1009.9 |
| 20260504020509 | 66 | 241 | 0.9 | 2.6 | 0.00 | 0.00 | 0.00 | 23 | 1009.9 |
| 20260504020008 | 66 | 215 | 0.9 | 2.6 | 0.00 | 0.00 | 0.00 | 23 | 1009.9 |
| 20260504015504 | 66 | 282 | 0.0 | 2.6 | 0.00 | 0.00 | 0.00 | 23 | 1009.9 |
| 20260504015004 | 66 | 240 | 0.0 | 7.0 | 0.00 | 0.00 | 0.00 | 23 | 1009.9 |
| 20260504014519 | 67 | 213 | 1.7 | 7.0 | 0.00 | 0.00 | 0.00 | 23 | 1009.9 |
| 20260504014009 | 67 | 244 | 0.9 | 4.3 | 0.00 | 0.00 | 0.00 | 22 | 1010.0 |
| 20260504013506 | 67 | 360 | 1.7 | 6.1 | 0.00 | 0.00 | 0.00 | 24 | 1010.0 |
| 20260504013019 | 67 | 306 | 1.7 | 6.1 | 0.00 | 0.00 | 0.00 | 21 | 1010.0 |
| 20260504012507 | 67 | 236 | 0.9 | 5.2 | 0.00 | 0.00 | 0.00 | 22 | 1010.1 |
| 20260504012008 | 68 | 217 | 0.9 | 5.2 | 0.00 | 0.00 | 0.00 | 22 | 1010.1 |